FW2834 Weather Reports


Display with metric or nautical units.
time (UTC)temp
F
wind
direction
speed
MPH
gust
MPH
rain 1hr
in
rain 24hr
in
rain mn
in
humidity
%
barometer
mb
20260901213506 93 320 0.0 1.0 0.00 0.00 0.00 47 1014.6
20260901213012 94 321 0.0 2.0 0.00 0.00 0.00 47 1014.6
20260901212504 94 87 0.0 2.0 0.00 0.00 0.00 46 1014.5
20260901212006 94 346 0.0 1.0 0.00 0.00 0.00 46 1014.5
20260901211510 94 340 0.0 1.0 0.00 0.00 0.00 46 1014.6
20260901211003 94 340 0.0 1.0 0.00 0.00 0.00 45 1014.7
20260901210503 94 17 0.0 1.0 0.00 0.00 0.00 46 1014.7
20260901210008 94 130 0.0 3.0 0.00 0.00 0.00 46 1014.6
20260901205504 94 113 0.0 3.0 0.00 0.00 0.00 46 1014.6
20260901205002 94 5 0.0 2.0 0.00 0.00 0.00 47 1014.6
20260901204503 95 324 0.0 0.0 0.00 0.00 0.00 46 1014.8
20260901204100 95 324 0.0 0.0 0.00 0.00 0.00 47 1014.8
20260901203602 95 324 0.0 3.0 0.00 0.00 0.00 45 1014.9
20260901203059 95 324 0.0 3.0 0.00 0.00 0.00 44 1014.9
20260901202600 95 350 0.0 4.0 0.00 0.00 0.00 44 1014.8
20260901202058 95 111 0.0 5.0 0.00 0.00 0.00 44 1014.9
20260901201558 95 116 0.0 5.0 0.00 0.00 0.00 43 1014.9
20260901201058 96 325 0.0 1.0 0.00 0.00 0.00 44 1014.9
20260901200558 96 123 0.0 4.0 0.00 0.00 0.00 44 1015.0
20260901200057 96 119 0.0 4.0 0.00 0.00 0.00 46 1015.0
20260901195557 96 123 0.0 3.0 0.00 0.00 0.00 44 1015.0
20260901195056 95 59 0.0 3.0 0.00 0.00 0.00 42 1015.0
20260901194600 95 65 0.0 4.0 0.00 0.00 0.00 46 1015.1
20260901194053 95 86 0.0 4.0 0.00 0.00 0.00 46 1015.1
20260901193552 95 349 0.0 2.0 0.00 0.00 0.00 45 1015.1
20260901193052 95 337 0.0 1.0 0.00 0.00 0.00 47 1015.2
20260901192553 95 317 0.0 5.0 0.00 0.00 0.00 46 1015.2
20260901192050 95 355 0.0 5.0 0.00 0.00 0.00 44 1015.3
20260901191550 95 190 0.0 3.0 0.00 0.00 0.00 44 1015.4
20260901191050 95 224 0.0 3.0 0.00 0.00 0.00 47 1015.5
20260901190549 95 120 0.0 6.0 0.00 0.00 0.00 46 1015.6
20260901190048 95 119 1.0 6.0 0.00 0.00 0.00 46 1015.6
20260901185548 94 159 0.0 4.0 0.00 0.00 0.00 47 1015.7
20260901185046 94 355 0.0 3.0 0.00 0.00 0.00 49 1015.7
20260901184546 94 128 0.0 7.0 0.00 0.00 0.00 48 1015.7
20260901184045 94 90 0.0 4.0 0.00 0.00 0.00 49 1015.7
20260901183542 94 123 1.0 4.0 0.00 0.00 0.00 48 1015.7
20260901183100 93 229 0.0 3.0 0.00 0.00 0.00 49 1015.6
20260901182541 93 63 0.0 3.0 0.00 0.00 0.00 50 1015.7
20260901182039 93 278 0.0 3.0 0.00 0.00 0.00 52 1015.7
20260901181540 92 104 0.0 3.0 0.00 0.00 0.00 51 1015.8
20260901181036 92 101 1.0 3.0 0.00 0.00 0.00 52 1015.8
20260901180537 92 139 0.0 3.0 0.00 0.00 0.00 51 1015.9
20260901180036 92 155 0.0 7.0 0.00 0.00 0.00 51 1015.9
20260901175535 92 129 1.0 7.0 0.00 0.00 0.00 49 1016.0
20260901175037 92 297 0.0 3.0 0.00 0.00 0.00 54 1016.0
20260901174535 92 223 0.0 2.0 0.00 0.00 0.00 53 1016.0
20260901174035 92 269 0.0 3.0 0.00 0.00 0.00 52 1016.0
20260901173532 92 267 1.0 3.0 0.00 0.00 0.00 52 1016.3
20260901173033 92 342 1.0 4.0 0.00 0.00 0.00 53 1016.2
20260901172536 92 268 0.0 4.0 0.00 0.00 0.00 52 1016.3
20260901172033 92 77 0.0 0.0 0.00 0.00 0.00 52 1016.3
20260901171547 92 34 0.0 0.0 0.00 0.00 0.00 52 1016.3
20260901171034 92 30 0.0 0.0 0.00 0.00 0.00 51 1016.4
20260901170532 92 262 0.0 0.0 0.00 0.00 0.00 51 1016.4
20260901170046 92 258 0.0 0.0 0.00 0.00 0.00 52 1016.4
20260901165531 92 301 0.0 0.0 0.00 0.00 0.00 52 1016.4
20260901165031 92 290 0.0 0.0 0.00 0.00 0.00 51 1016.5
20260901164530 92 285 0.0 4.0 0.00 0.00 0.00 53 1016.4
20260901164030 92 285 0.0 4.0 0.00 0.00 0.00 51 1016.5
20260901163528 92 282 1.0 3.0 0.00 0.00 0.00 52 1016.5
20260901163033 92 247 1.0 3.0 0.00 0.00 0.00 52 1016.5
20260901162526 91 286 1.0 3.0 0.00 0.00 0.00 54 1016.5
20260901162029 91 217 0.0 3.0 0.00 0.00 0.00 58 1016.6
20260901161528 91 115 0.0 4.0 0.00 0.00 0.00 58 1016.6
20260901161023 91 115 1.0 4.0 0.00 0.00 0.00 56 1016.6
20260901160522 90 217 0.0 4.0 0.00 0.00 0.00 56 1016.5
20260901160020 90 218 0.0 4.0 0.00 0.00 0.00 56 1016.6
20260901155018 89 286 0.0 4.0 0.00 0.00 0.00 60 1016.6
20260901154516 89 215 0.0 4.0 0.00 0.00 0.00 57 1016.7
20260901154016 89 339 1.0 4.0 0.00 0.00 0.00 58 1016.6
20260901153514 89 271 1.0 4.0 0.00 0.00 0.00 59 1016.8
20260901153013 88 188 0.0 2.0 0.00 0.00 0.00 61 1016.9
20260901152514 88 217 0.0 8.0 0.00 0.00 0.00 61 1016.9
20260901152013 88 284 1.0 8.0 0.00 0.00 0.00 60 1016.9
20260901151508 87 236 0.0 3.0 0.00 0.00 0.00 62 1016.8
20260901151007 87 50 0.0 3.0 0.00 0.00 0.00 62 1016.8
20260901150505 86 297 0.0 3.0 0.00 0.00 0.00 64 1016.9
20260901150007 86 264 0.0 3.0 0.00 0.00 0.00 65 1016.8
20260901145503 85 273 0.0 3.0 0.00 0.00 0.00 66 1016.8
20260901145002 84 297 0.0 3.0 0.00 0.00 0.00 67 1016.9
20260901144601 84 284 0.0 2.0 0.00 0.00 0.00 69 1016.8
20260901144102 83 284 0.0 2.0 0.00 0.00 0.00 69 1016.8
20260901143557 82 144 0.0 2.0 0.00 0.00 0.00 70 1016.9
20260901143106 82 244 0.0 2.0 0.00 0.00 0.00 71 1016.9
20260901142554 81 211 0.0 0.0 0.00 0.00 0.00 73 1017.0
20260901142052 80 209 0.0 0.0 0.00 0.00 0.00 74 1017.1
20260901141557 79 259 0.0 0.0 0.00 0.00 0.00 75 1017.2
20260901141049 79 259 0.0 0.0 0.00 0.00 0.00 76 1017.2
20260901140548 78 259 0.0 0.0 0.00 0.00 0.00 78 1017.2
20260901140047 77 254 0.0 0.0 0.00 0.00 0.00 81 1017.2
20260901135546 77 327 0.0 0.0 0.00 0.00 0.00 85 1017.1
20260901135045 76 322 0.0 0.0 0.00 0.00 0.00 87 1017.1
20260901134543 76 322 0.0 0.0 0.00 0.00 0.00 87 1017.0
20260901134042 75 322 0.0 0.0 0.00 0.00 0.00 88 1017.0
20260901133543 75 322 0.0 0.0 0.00 0.00 0.00 88 1016.9
20260901133046 74 321 0.0 0.0 0.00 0.00 0.00 88 1017.0
20260901132539 74 321 0.0 1.0 0.00 0.00 0.00 88 1016.9
20260901132037 74 321 0.0 1.0 0.00 0.00 0.00 88 1017.0
20260901131541 74 329 0.0 1.0 0.00 0.00 0.00 88 1016.9
20260901131040 73 329 0.0 1.0 0.00 0.00 0.00 88 1016.8
20260901130538 73 329 0.0 1.0 0.00 0.00 0.00 88 1016.9
20260901130037 73 329 0.0 1.0 0.00 0.00 0.00 88 1017.0
20260901125535 73 99 0.0 0.0 0.00 0.00 0.00 87 1017.1
20260901125036 72 99 0.0 1.0 0.00 0.00 0.00 86 1017.1
20260901124535 72 99 0.0 1.0 0.00 0.00 0.00 86 1017.1
20260901124034 72 99 0.0 0.0 0.00 0.00 0.00 85 1017.1
20260901123533 72 99 0.0 0.0 0.00 0.00 0.00 85 1017.1
20260901123038 72 99 0.0 1.0 0.00 0.00 0.00 84 1017.2
20260901122531 71 99 0.0 0.0 0.00 0.00 0.00 83 1017.1
20260901122032 71 99 0.0 0.0 0.00 0.00 0.00 82 1017.1
20260901121530 71 99 0.0 0.0 0.00 0.00 0.00 81 1017.1
20260901121032 71 99 0.0 0.0 0.00 0.00 0.00 81 1017.2
20260901120527 71 99 0.0 0.0 0.00 0.00 0.00 80 1017.0
20260901120027 71 99 0.0 0.0 0.00 0.00 0.00 80 1016.9
20260901115526 71 99 0.0 0.0 0.00 0.00 0.00 80 1016.8
20260901115030 71 99 0.0 0.0 0.00 0.00 0.00 79 1016.7
20260901114527 71 99 0.0 0.0 0.00 0.00 0.00 79 1016.7
20260901114024 71 99 0.0 0.0 0.00 0.00 0.00 79 1016.6
20260901113523 71 99 0.0 0.0 0.00 0.00 0.00 79 1016.5
20260901113022 71 99 0.0 0.0 0.00 0.00 0.00 79 1016.4
20260901112521 71 99 0.0 0.0 0.00 0.00 0.00 78 1016.4
20260901112025 71 99 0.0 0.0 0.00 0.00 0.00 78 1016.4
20260901111521 71 99 0.0 0.0 0.00 0.00 0.00 78 1016.3
20260901111020 71 99 0.0 0.0 0.00 0.00 0.00 78 1016.2
20260901110519 71 99 0.0 0.0 0.00 0.00 0.00 78 1016.1
20260901110120 71 99 0.0 0.0 0.00 0.00 0.00 78 1016.1
20260901105521 71 99 0.0 0.0 0.00 0.00 0.00 78 1016.1
20260901105018 71 99 0.0 0.0 0.00 0.00 0.00 78 1016.1
20260901104521 71 99 0.0 0.0 0.00 0.00 0.00 78 1016.1
20260901104018 71 99 0.0 0.0 0.00 0.00 0.00 78 1016.0
20260901103516 71 99 0.0 0.0 0.00 0.00 0.00 78 1016.0
20260901103016 71 99 0.0 0.0 0.00 0.00 0.00 78 1015.9
20260901102516 71 99 0.0 0.0 0.00 0.00 0.00 77 1016.0
20260901102016 71 99 0.0 0.0 0.00 0.00 0.00 77 1016.0
20260901101516 71 99 0.0 0.0 0.00 0.00 0.00 77 1016.0
20260901101015 71 99 0.0 0.0 0.00 0.00 0.00 76 1015.9
20260901100515 71 99 0.0 0.0 0.00 0.00 0.00 76 1015.8
20260901100015 71 99 0.0 0.0 0.00 0.00 0.00 76 1015.7
20260901095513 71 99 0.0 0.0 0.00 0.00 0.00 76 1015.7
20260901095013 71 99 0.0 0.0 0.00 0.00 0.00 76 1015.7
20260901094513 71 99 0.0 0.0 0.00 0.00 0.00 76 1015.7
20260901094012 71 99 0.0 0.0 0.00 0.00 0.00 76 1015.6
20260901093512 72 99 0.0 0.0 0.00 0.00 0.00 76 1015.6
20260901093011 72 99 0.0 0.0 0.00 0.00 0.00 76 1015.6
20260901092511 72 99 0.0 0.0 0.00 0.00 0.00 76 1015.5
20260901092011 72 99 0.0 0.0 0.00 0.00 0.00 76 1015.5
20260901091511 72 99 0.0 0.0 0.00 0.00 0.00 76 1015.6
20260901091010 72 99 0.0 0.0 0.00 0.00 0.00 76 1015.6
20260901090509 72 99 0.0 0.0 0.00 0.00 0.00 76 1015.5
20260901090016 72 99 0.0 0.0 0.00 0.00 0.00 75 1015.5
20260901085510 72 99 0.0 0.0 0.00 0.00 0.00 75 1015.4
20260901085008 72 99 0.0 0.0 0.00 0.00 0.00 75 1015.3
20260901084508 72 99 0.0 0.0 0.00 0.00 0.00 75 1015.3
20260901084008 73 99 0.0 0.0 0.00 0.00 0.00 75 1015.3
20260901083508 73 99 0.0 0.0 0.00 0.00 0.00 75 1015.3
20260901083007 73 99 0.0 0.0 0.00 0.00 0.00 75 1015.3
20260901082507 73 99 0.0 0.0 0.00 0.00 0.00 75 1015.2
20260901082005 73 99 0.0 0.0 0.00 0.00 0.00 75 1015.3
20260901081505 73 99 0.0 0.0 0.00 0.00 0.00 75 1015.3
20260901081005 73 99 0.0 0.0 0.00 0.00 0.00 75 1015.3
20260901080504 73 99 0.0 0.0 0.00 0.00 0.00 75 1015.3
20260901080006 73 99 0.0 0.0 0.00 0.00 0.00 75 1015.3
20260901075504 74 99 0.0 0.0 0.00 0.00 0.00 74 1015.3
20260901075007 74 99 0.0 0.0 0.00 0.00 0.00 75 1015.2
20260901074502 74 99 0.0 0.0 0.00 0.00 0.00 75 1015.1
20260901074004 74 99 0.0 0.0 0.00 0.00 0.00 74 1015.0
20260901073502 74 99 0.0 0.0 0.00 0.00 0.00 74 1015.0
20260901073001 74 99 0.0 0.0 0.00 0.00 0.00 74 1015.0
20260901072501 74 99 0.0 1.0 0.00 0.00 0.00 74 1014.9
20260901072101 74 99 0.0 1.0 0.00 0.00 0.00 74 1014.9
20260901071606 74 99 0.0 0.0 0.00 0.00 0.00 74 1014.9
20260901071059 74 99 0.0 0.0 0.00 0.00 0.00 74 1015.0
20260901070559 74 99 0.0 0.0 0.00 0.00 0.00 74 1015.0
20260901070059 75 99 0.0 0.0 0.00 0.00 0.00 74 1014.9
20260901065600 75 99 0.0 0.0 0.00 0.00 0.00 75 1014.9
20260901065058 75 99 0.0 0.0 0.00 0.00 0.00 75 1014.8
20260901064558 75 99 0.0 1.0 0.00 0.00 0.00 75 1014.7
20260901064102 75 99 0.0 1.0 0.00 0.00 0.00 75 1014.7
20260901063557 75 99 0.0 0.0 0.00 0.00 0.00 75 1014.7
20260901063102 75 99 0.0 0.0 0.00 0.00 0.00 75 1014.6
20260901062555 75 99 0.0 0.0 0.00 0.00 0.00 75 1014.7
20260901062056 75 99 0.0 1.0 0.00 0.00 0.00 75 1014.7
20260901061555 75 99 0.0 1.0 0.00 0.00 0.00 75 1014.6
20260901061055 75 99 0.0 1.0 0.00 0.00 0.00 75 1014.6
20260901060555 75 99 0.0 0.0 0.00 0.00 0.00 75 1014.8
20260901060053 75 99 0.0 0.0 0.00 0.00 0.00 75 1014.9
20260901055552 75 99 0.0 0.0 0.00 0.00 0.00 75 1015.1
20260901055052 75 99 0.0 0.0 0.00 0.00 0.00 75 1015.1
20260901054554 75 99 0.0 0.0 0.00 0.00 0.00 75 1015.2
20260901054055 75 99 0.0 0.0 0.00 0.00 0.00 75 1015.1
20260901053551 75 99 0.0 0.0 0.00 0.00 0.00 75 1015.3
20260901053059 75 99 0.0 0.0 0.00 0.00 0.00 75 1015.3
20260901052550 75 99 0.0 0.0 0.00 0.00 0.00 75 1015.3
20260901052049 75 99 0.0 0.0 0.00 0.00 0.00 75 1015.2
20260901051553 75 99 0.0 0.0 0.00 0.00 0.00 75 1015.2
20260901051049 75 99 0.0 0.0 0.00 0.00 0.00 75 1015.3
20260901050552 75 99 0.0 0.0 0.00 0.00 0.00 74 1015.3
20260901050047 75 99 0.0 0.0 0.00 0.00 0.00 74 1015.4
20260901045546 75 99 0.0 0.0 0.00 0.00 0.00 74 1015.4
20260901045046 75 99 0.0 0.0 0.00 0.00 0.00 74 1015.6
20260901044552 75 99 0.0 0.0 0.00 0.00 0.00 74 1015.7
20260901044045 75 99 0.0 0.0 0.00 0.00 0.00 73 1015.6
20260901043546 75 99 0.0 0.0 0.00 0.00 0.00 73 1015.7
20260901043044 76 99 0.0 0.0 0.00 0.00 0.00 73 1015.7
20260901042542 76 99 0.0 0.0 0.00 0.00 0.00 72 1015.8
20260901042042 76 99 0.0 0.0 0.00 0.00 0.00 73 1015.8
20260901041603 76 99 0.0 0.0 0.00 0.00 0.00 73 1015.9
20260901041043 76 99 0.0 0.0 0.00 0.00 0.00 73 1015.8
20260901040539 76 99 0.0 0.0 0.00 0.00 0.00 72 1015.8
20260901040049 76 99 0.0 0.0 0.00 0.00 0.00 72 1015.7
20260901035538 76 99 0.0 0.0 0.00 0.00 0.00 72 1015.7
20260901035037 76 99 0.0 0.0 0.00 0.00 0.00 72 1015.8
20260901034537 76 99 0.0 0.0 0.00 0.00 0.00 72 1015.8
20260901034037 76 99 0.0 0.0 0.00 0.00 0.00 72 1015.8
20260901033540 76 99 0.0 0.0 0.00 0.00 0.00 71 1015.9
20260901033036 76 99 0.0 0.0 0.00 0.00 0.00 71 1015.9
20260901032536 77 99 0.0 0.0 0.00 0.00 0.00 71 1016.0
20260901032038 77 99 0.0 0.0 0.00 0.00 0.00 71 1016.1
20260901031535 77 99 0.0 0.0 0.00 0.00 0.00 71 1015.9
20260901031035 77 99 0.0 0.0 0.00 0.00 0.00 71 1016.1
20260901030537 77 99 0.0 0.0 0.00 0.00 0.00 71 1016.0
20260901030037 77 99 0.0 0.0 0.00 0.00 0.00 70 1016.0
20260901025536 77 99 0.0 0.0 0.00 0.00 0.00 70 1016.1
20260901025036 77 99 0.0 0.0 0.00 0.00 0.00 70 1016.0
20260901024539 77 99 0.0 0.0 0.00 0.00 0.00 70 1016.0
20260901024036 78 99 0.0 0.0 0.00 0.00 0.00 70 1016.0
20260901023536 78 99 0.0 0.0 0.00 0.00 0.00 70 1016.1
20260901023034 78 99 0.0 0.0 0.00 0.00 0.00 70 1016.2
20260901022534 78 99 0.0 0.0 0.00 0.00 0.00 69 1016.1
20260901022034 78 99 0.0 0.0 0.00 0.00 0.00 69 1016.1
20260901021536 78 99 0.0 0.0 0.00 0.00 0.00 69 1016.0
20260901021034 78 99 0.0 0.0 0.00 0.00 0.00 69 1016.1
20260901020533 79 99 0.0 0.0 0.00 0.00 0.00 68 1016.1
20260901020033 79 99 0.0 0.0 0.00 0.00 0.00 68 1016.2
20260901015533 79 99 0.0 0.0 0.00 0.00 0.00 68 1016.1
20260901015033 79 99 0.0 0.0 0.00 0.00 0.00 68 1016.2
20260901014533 80 99 0.0 0.0 0.00 0.00 0.00 68 1016.0
20260901014033 80 99 0.0 0.0 0.00 0.00 0.00 67 1016.0
20260901013533 80 99 0.0 0.0 0.00 0.00 0.00 67 1016.0
20260901013032 80 99 0.0 0.0 0.00 0.00 0.00 66 1015.8
20260901012531 81 99 0.0 0.0 0.00 0.00 0.00 66 1015.8
20260901012031 81 99 0.0 0.0 0.00 0.00 0.00 66 1015.9
20260901011537 81 99 0.0 0.0 0.00 0.00 0.00 65 1015.8
20260901011031 81 99 0.0 0.0 0.00 0.00 0.00 65 1015.8
20260901010534 82 99 0.0 0.0 0.00 0.00 0.00 64 1015.8
20260901010045 82 99 0.0 0.0 0.00 0.00 0.00 64 1015.7
20260901005531 82 99 0.0 0.0 0.00 0.00 0.00 63 1015.6
20260901005030 83 99 0.0 0.0 0.00 0.00 0.00 63 1015.5
20260901004534 83 99 0.0 0.0 0.00 0.00 0.00 62 1015.4
20260901004031 83 99 0.0 0.0 0.00 0.00 0.00 62 1015.4
20260901003530 84 99 0.0 0.0 0.00 0.00 0.00 62 1015.3
20260901003030 84 99 0.0 0.0 0.00 0.00 0.00 61 1015.3
20260901002530 84 99 0.0 0.0 0.00 0.00 0.00 61 1015.2
20260901002030 85 99 0.0 0.0 0.00 0.00 0.00 61 1015.1
20260901001530 85 99 0.0 0.0 0.00 0.00 0.00 61 1015.0
20260901001029 85 99 0.0 0.0 0.00 0.00 0.00 61 1015.0
20260901000529 85 99 0.0 0.0 0.00 0.00 0.00 60 1014.9
20260901000029 86 99 0.0 0.0 0.00 0.00 0.00 60 1014.8
20260831235529 86 99 0.0 0.0 0.00 0.00 0.00 59 1014.8
20260831235031 86 99 0.0 0.0 0.00 0.00 0.00 59 1014.7
20260831234529 86 99 0.0 0.0 0.00 0.00 0.00 58 1014.7
20260831234029 87 99 0.0 1.0 0.00 0.00 0.00 58 1014.6
20260831233528 87 99 0.0 2.0 0.00 0.00 0.00 57 1014.5
20260831233038 87 99 0.0 2.0 0.00 0.00 0.00 56 1014.5
20260831232527 87 99 0.0 1.0 0.00 0.00 0.00 56 1014.5
20260831232031 88 100 0.0 1.0 0.00 0.00 0.00 55 1014.4
20260831231535 88 94 0.0 1.0 0.00 0.00 0.00 56 1014.4
20260831231027 88 94 0.0 3.0 0.00 0.00 0.00 56 1014.4
20260831230528 88 94 0.0 3.0 0.00 0.00 0.00 56 1014.4
20260831230027 88 70 0.0 1.0 0.00 0.00 0.00 55 1014.4
20260831225526 89 76 0.0 3.0 0.00 0.00 0.00 55 1014.4
20260831225029 89 76 0.0 3.0 0.00 0.00 0.00 54 1014.4
20260831224526 89 218 0.0 0.0 0.00 0.00 0.00 54 1014.6
20260831224024 89 218 0.0 1.0 0.00 0.00 0.00 54 1014.7
20260831223524 89 218 0.0 1.0 0.00 0.00 0.00 53 1014.7
20260831223023 90 219 0.0 1.0 0.00 0.00 0.00 53 1014.7
20260831222524 90 223 0.0 1.0 0.00 0.00 0.00 52 1014.8
20260831222022 90 197 0.0 1.0 0.00 0.00 0.00 52 1014.9
20260831221530 90 197 0.0 1.0 0.00 0.00 0.00 52 1015.0
20260831221021 90 197 0.0 1.0 0.00 0.00 0.00 52 1015.0
20260831220524 90 197 0.0 1.0 0.00 0.00 0.00 51 1015.1
20260831220024 90 197 0.0 3.0 0.00 0.00 0.00 51 1015.3
20260831215521 90 197 0.0 3.0 0.00 0.00 0.00 50 1015.2
20260831215020 90 290 0.0 3.0 0.00 0.00 0.00 49 1015.1
20260831214517 90 259 0.0 2.0 0.00 0.00 0.00 50 1015.3
20260831214017 91 259 0.0 2.0 0.00 0.00 0.00 50 1015.3